Manylion cais “Homelessness temporary accommodation

Hanes y digwyddiad

Mae'r tabl hwn yn dangos manylion technegol y digwyddiadau mewnol a ddigwyddodd i'r cais hwn ar WhatDoTheyKnow. Gallai hwn gael ei ddefnyddio i gynhyrchu gwybodaeth am ba mor gyflym y mae awdurdodau yn ymateb i geisiadau, nifer y ceisiadau sy'n gofyn am ymateb drwy'r post a llawer mwy.

Caveat Emptor! Er mwyn defnyddio'r data hwn mewn ffordd anrhydeddus, bydd angen gwybodaeth fewnol dda o ymddygiad defnyddwyr ar WhatDoTheyKnow. Nid yw sut, pam a chan bwy y bydd ceisiadau yn cael eu categoreiddio yn syml, a bydd gwallau defnyddiwr ac amwysedd. Bydd angen i chi hefyd ddeall cyfraith Rhyddid Gwybodaeth, a sut y mae awdurdodau yn ei defnyddio. Yn ogystal bydd angen i chi fod yn ystadegydd prin. Cysylltwch â ni gyda chwestiynau.

id event_type created_at described_state last_described_at calculated_state link
5375980  set_embargo  2019-09-20 09:26:37 +0100         
5375981  sent  2019-09-20 09:26:37 +0100  waiting_response  2019-09-20 09:26:38 +0100  waiting_response  outgoing  
5376146  response  2019-09-20 10:14:30 +0100        incoming  
5508689  response  2019-10-14 11:43:11 +0100        incoming  
5865195  embargo_expiring  2019-12-13 00:00:00 +0000         
5908385  expire_embargo  2019-12-21 00:02:58 +0000         
6036290  edit  2020-01-15 03:59:36 +0000         
6036291  edit  2020-01-15 03:59:36 +0000         
6036292  edit  2020-01-15 03:59:37 +0000         
6036293  edit  2020-01-15 03:59:39 +0000         
6036294  edit  2020-01-15 03:59:39 +0000         
6036295  edit  2020-01-15 03:59:39 +0000         
7819337  edit  2020-10-15 03:51:30 +0100         
7819338  edit  2020-10-15 03:51:31 +0100         
7819339  edit  2020-10-15 03:51:31 +0100         
7819340  edit  2020-10-15 03:51:31 +0100         
7819341  edit  2020-10-15 03:51:31 +0100         
7819342  edit  2020-10-15 03:51:32 +0100         
7819343  edit  2020-10-15 03:51:32 +0100         
7819344  edit  2020-10-15 03:51:32 +0100         
7819345  edit  2020-10-15 03:51:32 +0100         
7819346  edit  2020-10-15 03:51:33 +0100         
7819347  edit  2020-10-15 03:51:33 +0100         
7819348  edit  2020-10-15 03:51:33 +0100         

Yma mae wedi ei ddisgrifio yn golygu pan fydd defnyddiwr yn dewis statws ar gyfer y cais, a statws y digwyddiad mwyaf diweddar wedi ei diweddaru statws i'r gwerth hwnnw. Wedyn mae wedi'i gyfrifo yn cael ei dybio gan WhatDoTheyKnow ar gyfer digwyddiadau canolradd, na chawsant ddisgrifiad penodol gan ddefnyddiwr. Gweler awgrymiadau chwilio am ddisgrifiad o'r cyflyrau.

You can get this page in computer-readable format as part of the main JSON page for the request. See the API documentation.